Torna al catalogo

RASSVET-3 20

AttivoPO
NORAD 100086·PAYLOAD·🇷🇺 Russia

Lanciato Jul 19, 2026 da Plesetsk Cosmodrome

Loading…

Prossimi Passaggi (prossime 24 ore)

TLE

AggiornatoSource: Space-Track

Epoca: Sep 14, 2026, 13:35 UTC

1 A0086U 26165D   26257.56599932 -.00316815  00000-0 -33726-2 0  9993
2 A0086  82.3008 167.6688 0010132  45.4666 314.7419 15.64863479  8951

Traccia RASSVET-3 20 in tempo reale con AllMySat

Download on the App Store